Previsão horária em Almaly

Hoje, 24 Janeiro, Domingo

Tempo Temperatura Precipitação Vento Pressão Humidade
00:00 -11°C° 0.4 mm 11 m/s 721 mmHg 92%
01:00 -10°C° 0.4 mm 10 m/s 722 mmHg 92%
02:00 -10°C° 0.4 mm 9 m/s 722 mmHg 91%
03:00 -10°C° 0.3 mm 8 m/s 722 mmHg 93%
04:00 -9°C° 0.3 mm 7 m/s 722 mmHg 93%
05:00 -9°C° 0.3 mm 6 m/s 722 mmHg 94%
06:00 -8°C° 0.3 mm 5 m/s 722 mmHg 94%
07:00 -8°C° 0.3 mm 4 m/s 722 mmHg 95%
08:00 -7°C° 0.3 mm 3 m/s 723 mmHg 95%
09:00 -7°C° 0.1 mm 3 m/s 723 mmHg 95%
10:00 -6°C° 0.1 mm 3 m/s 723 mmHg 94%
11:00 -5°C° 0.1 mm 2 m/s 723 mmHg 94%
12:00 -4°C° 0 mm 2 m/s 722 mmHg 93%
13:00 -2°C° 0 mm 1 m/s 722 mmHg 92%
14:00 -2°C° 0 mm 1 m/s 721 mmHg 91%
15:00 -3°C° 0 mm 1 m/s 721 mmHg 91%
16:00 -3°C° 0 mm 1 m/s 721 mmHg 90%
17:00 -4°C° 0 mm 1 m/s 721 mmHg 90%
18:00 -6°C° 0 mm 1 m/s 721 mmHg 89%
19:00 -7°C° 0 mm 2 m/s 721 mmHg 88%
20:00 -8°C° 0 mm 2 m/s 721 mmHg 87%
21:00 -8°C° 0 mm 2 m/s 720 mmHg 87%
22:00 -8°C° 0 mm 2 m/s 720 mmHg 87%
23:00 -8°C° 0 mm 2 m/s 720 mmHg 86%

Amanhã, 25 Janeiro, Segunda-feira

Tempo Temperatura Precipitação Vento Pressão Humidade
00:00 -8°C° 0 mm 2 m/s 720 mmHg 86%
01:00 -9°C° 0 mm 2 m/s 720 mmHg 86%
02:00 -9°C° 0 mm 2 m/s 719 mmHg 86%
03:00 -10°C° 0 mm 3 m/s 719 mmHg 84%
04:00 -10°C° 0 mm 3 m/s 719 mmHg 83%
05:00 -10°C° 0 mm 3 m/s 719 mmHg 81%
06:00 -10°C° 0 mm 3 m/s 719 mmHg 81%
07:00 -12°C° 0 mm 3 m/s 719 mmHg 81%
08:00 -12°C° 0 mm 3 m/s 719 mmHg 82%
09:00 -9°C° 0 mm 3 m/s 719 mmHg 82%
10:00 -8°C° 0 mm 3 m/s 719 mmHg 82%
11:00 -7°C° 0 mm 3 m/s 719 mmHg 83%
12:00 -6°C° 0 mm 3 m/s 719 mmHg 83%
13:00 -6°C° 0 mm 3 m/s 719 mmHg 84%
14:00 -4°C° 0 mm 2 m/s 718 mmHg 84%
15:00 -7°C° 0 mm 3 m/s 718 mmHg 84%
16:00 -8°C° 0 mm 3 m/s 718 mmHg 85%
17:00 -9°C° 0 mm 3 m/s 718 mmHg 85%
18:00 -9°C° 0 mm 3 m/s 718 mmHg 85%
19:00 -10°C° 0 mm 3 m/s 718 mmHg 84%
20:00 -10°C° 0 mm 3 m/s 718 mmHg 84%
21:00 -10°C° 0 mm 3 m/s 718 mmHg 84%
22:00 -10°C° 0 mm 3 m/s 718 mmHg 84%
23:00 -10°C° 0 mm 3 m/s 718 mmHg 84%

Depois de amanhã, 26 Janeiro, Terça-feira

Tempo Temperatura Precipitação Vento Pressão Humidade
00:00 -10°C° 0 mm 3 m/s 718 mmHg 84%
01:00 -10°C° 0 mm 3 m/s 718 mmHg 83%
02:00 -10°C° 0 mm 3 m/s 718 mmHg 83%
03:00 -10°C° 0 mm 3 m/s 718 mmHg 80%
04:00 -10°C° 0 mm 3 m/s 718 mmHg 78%
05:00 -10°C° 0 mm 3 m/s 718 mmHg 75%
06:00 -10°C° 0 mm 3 m/s 718 mmHg 76%
07:00 -10°C° 0 mm 3 m/s 718 mmHg 77%
08:00 -10°C° 0 mm 3 m/s 718 mmHg 77%
09:00 -8°C° 0 mm 3 m/s 718 mmHg 78%
10:00 -6°C° 0 mm 2 m/s 718 mmHg 79%
11:00 -4°C° 0 mm 2 m/s 719 mmHg 80%
12:00 -4°C° 0 mm 2 m/s 718 mmHg 81%
13:00 -3°C° 0 mm 2 m/s 718 mmHg 82%
14:00 -3°C° 0 mm 2 m/s 718 mmHg 83%
15:00 -4°C° 0 mm 2 m/s 718 mmHg 82%
16:00 -6°C° 0 mm 3 m/s 718 mmHg 82%
17:00 -7°C° 0 mm 3 m/s 717 mmHg 82%
18:00 -8°C° 0 mm 3 m/s 718 mmHg 80%
19:00 -8°C° 0 mm 3 m/s 718 mmHg 79%
20:00 -9°C° 0 mm 3 m/s 718 mmHg 78%
21:00 -9°C° 0 mm 3 m/s 718 mmHg 76%
22:00 -9°C° 0 mm 3 m/s 718 mmHg 75%
23:00 -9°C° 0 mm 3 m/s 718 mmHg 73%

27 Janeiro, Quarta-feira

Tempo Temperatura Precipitação Vento Pressão Humidade
00:00 -9°C° 0 mm 3 m/s 718 mmHg 72%
01:00 -9°C° 0 mm 3 m/s 717 mmHg 71%
02:00 -8°C° 0 mm 3 m/s 717 mmHg 70%
03:00 -8°C° 0 mm 3 m/s 717 mmHg 70%
04:00 -8°C° 0 mm 3 m/s 717 mmHg 69%
05:00 -8°C° 0 mm 3 m/s 717 mmHg 69%
06:00 -8°C° 0 mm 3 m/s 718 mmHg 69%
07:00 -8°C° 0 mm 3 m/s 718 mmHg 69%
08:00 -8°C° 0 mm 3 m/s 718 mmHg 68%
09:00 -7°C° 0 mm 3 m/s 718 mmHg 70%
10:00 -5°C° 0 mm 3 m/s 718 mmHg 72%
11:00 -4°C° 0 mm 3 m/s 718 mmHg 74%
12:00 -2°C° 0 mm 3 m/s 718 mmHg 75%
13:00 -2°C° 0 mm 3 m/s 718 mmHg 76%
14:00 -1°C° 0 mm 2 m/s 718 mmHg 77%
15:00 -4°C° 0 mm 3 m/s 718 mmHg 76%
16:00 -5°C° 0 mm 3 m/s 717 mmHg 75%
17:00 -6°C° 0 mm 3 m/s 717 mmHg 73%
18:00 -7°C° 0 mm 3 m/s 717 mmHg 71%
19:00 -7°C° 0 mm 3 m/s 718 mmHg 69%
20:00 -9°C° 0 mm 4 m/s 718 mmHg 67%
21:00 -9°C° 0 mm 4 m/s 718 mmHg 66%
22:00 -8°C° 0 mm 3 m/s 718 mmHg 64%
23:00 -7°C° 0 mm 3 m/s 718 mmHg 63%

28 Janeiro, Quinta-feira

Tempo Temperatura Precipitação Vento Pressão Humidade
00:00 -7°C° 0 mm 3 m/s 718 mmHg 64%
01:00 -7°C° 0 mm 3 m/s 717 mmHg 65%
02:00 -8°C° 0 mm 4 m/s 717 mmHg 65%
03:00 -8°C° 0 mm 4 m/s 717 mmHg 65%
04:00 -8°C° 0 mm 4 m/s 717 mmHg 64%
05:00 -8°C° 0 mm 4 m/s 717 mmHg 64%
06:00 -8°C° 0 mm 4 m/s 717 mmHg 63%
07:00 -8°C° 0 mm 4 m/s 717 mmHg 63%
08:00 -8°C° 0 mm 4 m/s 717 mmHg 62%
09:00 -7°C° 0 mm 4 m/s 717 mmHg 65%
10:00 -5°C° 0 mm 4 m/s 717 mmHg 67%
11:00 -3°C° 0 mm 4 m/s 717 mmHg 69%
12:00 -3°C° 0 mm 4 m/s 717 mmHg 69%
13:00 -3°C° 0 mm 4 m/s 716 mmHg 69%
14:00 -2°C° 0 mm 4 m/s 716 mmHg 69%
15:00 -3°C° 0 mm 4 m/s 716 mmHg 69%
16:00 -6°C° 0 mm 5 m/s 715 mmHg 68%
17:00 -7°C° 0 mm 5 m/s 715 mmHg 68%
18:00 -7°C° 0 mm 5 m/s 715 mmHg 66%
19:00 -7°C° 0 mm 5 m/s 715 mmHg 64%
20:00 -8°C° 0 mm 5 m/s 715 mmHg 62%
21:00 -7°C° 0 mm 5 m/s 715 mmHg 61%
22:00 -7°C° 0 mm 5 m/s 714 mmHg 59%
23:00 -7°C° 0 mm 5 m/s 714 mmHg 58%

29 Janeiro, Sexta-feira

Tempo Temperatura Precipitação Vento Pressão Humidade
Mostrar mais

Necessitamos do seu Consentimento

A Meteoprog e os seus Fornecedores de Serviços podem armazenar e aceder a dados pessoais como cookies, identificadores do dispositivo ou outras tecnologias semelhantes existentes no seu dispositivo e processar estes dados para personalizar conteúdos e anúncios, assim como funcionalidades nas redes sociais e análise de tráfego.

  • Armazenar e/ou aceder a informações no seu dispositivo

    Os cookies, identificadores do dispositivo ou outras informações podem ser armazenados ou acedidos no seu dispositivo, para os fins acima indicados.

  • Anúncios e conteúdos personalizados, medição de anúncios e conteúdos, dados sobre o público-alvo e desenvolvimento de produtos

    Os anúncios e os conteúdos podem ser personalizados com base num perfil. Podem ser adicionados dados adicionais para uma maior personalização dos anúncios e dos conteúdos. A eficácia dos anúncios e dos conteúdos pode ser medida. Podem ser obtidas informações sobre o público que visualizou os anúncios e os conteúdos. Estes dados podem ser usados para desenvolver ou melhorar sistemas, softwares ou a experiência do utilizador.

Ao clicar em "Eu concordo”, permitirá o uso de cookies, identificadores do dispositivo e web beacons mencionados ou outras tecnologias semelhantes. As configurações do navegador do seu dispositivo podem ser alteradas.

Para certos fins, podem ser invocados interesses legítimos ao invés de consentimento. Pode ler mais informação sobre este assunto na nossa Política de Privacidade e Cookies.